1999 TE5  

Epoch 1999 Oct. 9.0 TT = JDT 2451460.5                  Nakano

M   4.26639              (2000.0)            P               Q

n   0.29501356     Peri.  354.83582     +0.99143016     -0.12820418

a   2.2348141      Node    12.61328     +0.12359652     +0.85829688

e   0.4831027      Incl.    6.59985     +0.04230995     +0.49688043

P   3.34           H   19.8           G   0.15           U   *

Residuals in seconds of arc 

991003 704  0.7-  0.3-    991006 046  0.0   0.2+    991012 704  0.0   1.4-  

991003 704  0.3-  0.4-    991006 046  0.0   0.4+    991013 118  0.5-  0.7+  

991003 704  0.4+  1.0+    991006 046  0.1-  0.2-    991013 118  0.5-  0.2+  

991003 704  0.0   0.2+    991007 118  0.5+  0.4+    991013 118  0.4-  0.8+  

991003 704  0.2-  0.7+    991007 118  0.4+  0.2-    991014 118  0.6-  0.2+  

991004 557  0.1+  0.2-    991007 595  0.0   1.2+    991014 118  0.5-  0.2+  

991004 557  0.0   0.5-    991007 118  0.2-  0.5+    991019 360  0.2+  0.3+  

991004 557  0.2+  0.1-    991007 595  0.5-  0.5-    991019 360  0.1-  0.1+  

991005 704  0.1+  0.3-    991007 413  0.5-  0.0     991019 360  0.2-  0.2+  

991005 704  0.4+  0.6-    991007 413  0.0   0.1+    991020 402  0.0   0.1-  

991005 704  0.1+  0.5-    991012 704  0.4+  0.4-    991020 402  0.2-  0.4-  

991005 704  0.1+  0.5-    991012 704  0.7+  0.3+    991020 402  0.6+  0.2-  

991005 704  0.2+  0.5-    991012 704  0.6+  0.4+                            

991006 046  0.1+  0.5+    991012 704  0.4+  1.3-                            

 

NAKANO

         **** Don't distribute anyone except personal use only ****

                (C) Copyright 1999 OAA/ComputingSection

write mail from CFAD0::NAKANO on 1999-10-23 04:42:55(JST).



1999 TE5  

Epoch 1999 Oct. 9.0 TT = JDT 2451460.5                  Nakano

M   4.26888              (2000.0)            P               Q

n   0.29526524     Peri.  354.83964     +0.99142659     -0.12823441

a   2.2335439      Node    12.61114     +0.12361782     +0.85831358

e   0.4828355      Incl.    6.59748     +0.04233152     +0.49684378

P   3.34           H   19.8           G   0.15           U   *



NAKANO

         **** Don't distribute anyone except personal use only ****

                (C) Copyright 1999 OAA/ComputingSection

write mail from CFAD0::NAKANO on 1999-10-20 23:58:54(JST).





–ß‚è‚Ü‚·B